Location: Aghk�ilisa
(40.0189°N, 45.0097°E)
Time: 01:31:28
(UTC+00:00)

Cosmos 2082 Rocket - Pass Details

Date: 21 October 2019
Orbit: 832 x 855 km, 71.0° (Epoch: 12 November)

Event Time Altitude Azimuth Distance (km) Brightness Sun altitude
Rises 16:18:02 0° 332° (NNW) 3,427 5.8 -24.7°
Reaches altitude 10° 16:20:33 10° 328° (NNW) 2,485 5.1 -25.2°
Maximum altitude 16:26:05 55° 252° (WSW) 1,018 2.8 -26.3°
Enters shadow 16:30:01 19° 181° (S) 1,901 3.9 -27.0°
